Location: Newark
(49.3000°N, 9.4667°E)
Time: 23:33:58
(UTC+00:00)

Vanguard 2 - Visible Passes

Search period start: 26 May 2019 00:00
Search period end: 05 June 2019 00:00
Orbit: 552 x 2939 km, 32.9° (Epoch: 26 May)

Date Brightness Start Highest point End Pass type
(mag) Time Alt. Az. Time Alt. Az. Time Alt. Az.
26 May 10.6 21:35:13 10° WSW 21:40:14 13° SW 21:44:28 10° SSW visible
27 May 10.5 19:38:00 10° W 19:50:05 29° SSW 19:58:51 10° SSE visible
28 May 10.6 19:56:18 10° W 20:07:22 25° SW 20:15:39 10° SSE visible
29 May 10.7 20:14:56 10° W 20:24:33 20° SW 20:32:04 10° S visible
30 May 10.9 20:34:08 10° WSW 20:41:37 16° SW 20:47:50 10° SSW visible
31 May 11.1 20:54:55 10° WSW 20:58:35 11° SW 21:01:56 10° SW visible
04 Jun 11.4 19:53:53 10° WSW 19:59:25 12° SW 20:04:30 10° SSW visible
